Change the Weather History Date:

Wednesday, December 18, 2013

  Actual Average (KFNT) Record (KFNT)
Temperature  
Mean Temperature 24 °F 26 °F  
Max Temperature 29 °F 33 °F 54 °F (1939)
Min Temperature 19 °F 20 °F -7 °F (1926)
Degree Days  
Heating Degree Days 41 38  
Month to date heating degree days 641  
Since 1 July heating degree days 2122  
Cooling Degree Days 0 0  
Month to date cooling degree days 0  
Year to date cooling degree days 531  
Moisture  
Dew Point 20 °F    
Average Humidity 81    
Maximum Humidity 96    
Minimum Humidity 58    
Precipitation  
Precipitation 0.00 in 0.05 in 0.47 in (1977)
Month to date precipitation 1.16  
Year to date precipitation 30.61  
Snow  
Snow 0.00 in 0.40 in 3.60 in (1951)
Month to date snowfall 6.4  
Since 1 July snowfall 9.3  
Snow Depth -    
Sea Level Pressure  
Sea Level Pressure 29.97 in    
Wind  
Wind Speed 7 mph (WSW)    
Max Wind Speed 17 mph    
Max Gust Speed 23 mph    
Visibility 8 miles    
Events Snow    
T = Trace of Precipitation, MM = Missing Value Source: NWS Daily Summary

Daily Weather History Graph

Daily Weather History Graph

Search for Another Location

Airport or City:

Trip Planner

Search our weather history database for the weather conditions in past years. The results will help you decide how hot, cold, wet, or windy it might be!

Date:

Astronomy

Dec. 18, 2013 Rise Set
Actual Time 7:59 AM EST 4:59 PM EST
Civil Twilight 7:27 AM EST 5:32 PM EST
Nautical Twilight 6:51 AM EST 6:08 PM EST
Astronomical Twilight 6:16 AM EST 6:42 PM EST
Moon 6:33 PM EST (12/18) 8:36 AM EST (12/18)
Length of Visible Light 10h 05m
Length of Day
9h 00m
Full, 98% of the Moon is Illuminated
Dec 18
Full
Dec 25
Last Quarter
Jan 1
New
Jan 7
First Quarter
Jan 15
Full

Hourly Weather History & Observations

Time (EST) Temp. Windchill Dew Point Humidity Pressure Visibility Wind Dir Wind Speed Gust Speed Precip Events Conditions
12:14 AM 21.7 °F 15.5 °F 18.5 °F 87% 29.95 in 10.0 mi West 4.6 mph - N/A   Overcast
12:33 AM 21.9 °F 17.2 °F 18.5 °F 87% 29.95 in 10.0 mi WSW 3.5 mph - N/A   Overcast
12:54 AM 21.7 °F 15.5 °F 18.5 °F 87% 29.95 in 10.0 mi WSW 4.6 mph - N/A   Overcast
1:14 AM 21.2 °F 14.9 °F 18.3 °F 89% 29.95 in 10.0 mi WSW 4.6 mph - N/A   Overcast
1:33 AM 19.6 °F 13.0 °F 17.4 °F 91% 29.95 in 10.0 mi SW 4.6 mph - N/A   Overcast
1:54 AM 21.7 °F 14.3 °F 19.6 °F 91% 29.95 in 10.0 mi WSW 5.8 mph - N/A   Overcast
2:13 AM 22.5 °F 15.1 °F 20.5 °F 92% 29.95 in 10.0 mi WSW 5.8 mph - N/A   Overcast
2:34 AM 23.0 °F 17.0 °F 21.6 °F 94% 29.95 in 5.0 mi WSW 4.6 mph - N/A Snow Light Snow
2:54 AM 23.4 °F 17.4 °F 21.9 °F 94% 29.96 in 7.0 mi WSW 4.6 mph - N/A Snow Light Snow
3:13 AM 23.9 °F 18.0 °F 22.3 °F 94% 29.97 in 7.0 mi WSW 4.6 mph - N/A Snow Light Snow
3:34 AM 23.7 °F 17.8 °F 22.1 °F 94% 29.97 in 7.0 mi SW 4.6 mph - N/A   Overcast
3:54 AM 23.7 °F 17.8 °F 22.5 °F 95% 29.97 in 7.0 mi SW 4.6 mph - N/A Snow Light Snow
4:13 AM 24.1 °F 17.0 °F 23.0 °F 96% 29.97 in 5.0 mi SW 5.8 mph - N/A Snow Light Snow
4:34 AM 24.4 °F 17.5 °F 23.4 °F 96% 29.97 in 4.0 mi SW 5.8 mph - N/A Snow Light Snow
4:53 AM 24.6 °F 18.8 °F 23.5 °F 96% 29.97 in 5.0 mi WSW 4.6 mph - N/A Snow Light Snow
5:14 AM 24.8 °F 16.1 °F 23.9 °F 96% 29.98 in 7.0 mi WSW 8.1 mph - N/A Snow Light Snow
5:34 AM 25.3 °F 18.5 °F 23.9 °F 94% 29.98 in 5.0 mi West 5.8 mph - N/A Snow Light Snow
5:53 AM 25.5 °F 17.8 °F 23.9 °F 94% 29.98 in 4.0 mi WSW 6.9 mph - N/A Snow Light Snow
6:14 AM 25.7 °F 17.1 °F 24.1 °F 94% 29.98 in 5.0 mi WSW 8.1 mph - N/A Snow Light Snow
6:33 AM 25.7 °F 19.0 °F 24.3 °F 94% 29.98 in 7.0 mi West 5.8 mph - N/A Snow Light Snow
6:54 AM 25.9 °F 17.4 °F 24.1 °F 93% 29.99 in 7.0 mi WSW 8.1 mph - N/A Snow Light Snow
7:14 AM 26.1 °F 19.4 °F 24.3 °F 93% 29.99 in 4.0 mi West 5.8 mph - N/A Snow Light Snow
7:33 AM 26.1 °F 19.4 °F 24.6 °F 94% 30.00 in 4.0 mi West 5.8 mph - N/A Snow Light Snow
7:54 AM 26.4 °F 19.8 °F 25.0 °F 94% 30.00 in 4.0 mi West 5.8 mph - N/A Snow Light Snow
8:13 AM 26.4 °F 19.8 °F 24.8 °F 94% 30.01 in 4.0 mi West 5.8 mph - N/A Snow Light Snow
8:34 AM 26.6 °F 20.0 °F 24.8 °F 93% 30.01 in 3.0 mi West 5.8 mph - N/A Snow Light Snow
8:54 AM 26.6 °F 20.0 °F 24.8 °F 93% 30.02 in 2.5 mi West 5.8 mph - N/A Snow Light Snow
9:13 AM 26.6 °F 20.0 °F 24.6 °F 92% 30.03 in 2.5 mi West 5.8 mph - N/A Snow Light Snow
9:34 AM 26.6 °F 20.0 °F 24.6 °F 92% 30.03 in 2.0 mi West 5.8 mph - N/A Snow Light Snow
9:53 AM 26.6 °F 18.2 °F 24.6 °F 92% 30.04 in 2.0 mi West 8.1 mph - N/A Snow Light Snow
10:14 AM 26.6 °F 20.0 °F 24.3 °F 91% 30.04 in 3.0 mi West 5.8 mph - N/A Snow Light Snow
10:34 AM 26.6 °F 20.0 °F 24.1 °F 90% 30.05 in 5.0 mi West 5.8 mph - N/A Snow Light Snow
10:53 AM 27.1 °F 19.7 °F 23.5 °F 86% 30.05 in 10.0 mi West 6.9 mph - N/A   Overcast
11:14 AM 27.1 °F 19.7 °F 21.7 °F 80% 30.05 in 10.0 mi West 6.9 mph - N/A   Overcast
11:33 AM 27.1 °F 16.9 °F 21.2 °F 78% 30.06 in 10.0 mi West 11.5 mph - N/A   Overcast
11:54 AM 27.1 °F 17.5 °F 20.7 °F 77% 30.06 in 10.0 mi West 10.4 mph 17.3 mph N/A   Overcast
12:14 PM 27.1 °F 19.7 °F 21.0 °F 78% 30.05 in 10.0 mi West 6.9 mph - N/A   Overcast
12:33 PM 27.1 °F 18.9 °F 21.0 °F 78% 30.05 in 10.0 mi West 8.1 mph - N/A   Overcast
12:54 PM 27.0 °F 15.6 °F 19.9 °F 75% 30.04 in 10.0 mi WSW 13.8 mph 18.4 mph N/A   Overcast
1:14 PM 26.6 °F 15.7 °F 19.2 °F 74% 30.04 in 10.0 mi WSW 12.7 mph 23.0 mph N/A   Overcast
1:33 PM 27.0 °F 15.6 °F 18.7 °F 71% 30.03 in 10.0 mi West 13.8 mph 20.7 mph N/A   Overcast
1:54 PM 27.0 °F 16.1 °F 18.5 °F 70% 30.02 in 10.0 mi West 12.7 mph 20.7 mph N/A   Overcast
2:13 PM 27.3 °F 14.8 °F 18.5 °F 69% 30.02 in 10.0 mi WSW 17.3 mph 23.0 mph N/A   Mostly Cloudy
2:34 PM 27.1 °F 18.2 °F 18.5 °F 70% 30.01 in 10.0 mi WSW 9.2 mph - N/A   Clear
2:54 PM 26.6 °F 16.8 °F 18.5 °F 71% 30.01 in 10.0 mi WSW 10.4 mph 17.3 mph N/A   Clear
3:13 PM 27.5 °F 18.0 °F 19.8 °F 73% 30.02 in 10.0 mi West 10.4 mph 17.3 mph N/A   Mostly Cloudy
3:34 PM 27.9 °F 18.4 °F 20.5 °F 74% 30.01 in 10.0 mi WSW 10.4 mph - N/A   Overcast
3:53 PM 28.0 °F 19.3 °F 21.2 °F 76% 30.00 in 10.0 mi SW 9.2 mph 16.1 mph N/A   Overcast
4:14 PM 27.9 °F 22.6 °F 21.2 °F 76% 29.99 in 10.0 mi SW 4.6 mph 9.2 mph N/A   Scattered Clouds
4:34 PM 28.0 °F 20.0 °F 21.0 °F 75% 29.99 in 10.0 mi SW 8.1 mph - N/A   Scattered Clouds
4:54 PM 28.0 °F 18.6 °F 20.7 °F 74% 29.98 in 10.0 mi SSW 10.4 mph - N/A   Scattered Clouds
5:14 PM 27.5 °F 19.3 °F 20.3 °F 74% 29.98 in 10.0 mi SW 8.1 mph - N/A   Scattered Clouds
5:33 PM 27.3 °F 20.9 °F 20.3 °F 75% 29.96 in 10.0 mi SSW 5.8 mph - N/A   Mostly Cloudy
5:54 PM 27.0 °F 18.7 °F 20.3 °F 76% 29.95 in 10.0 mi SSW 8.1 mph - N/A   Scattered Clouds
6:14 PM 26.8 °F 18.5 °F 20.1 °F 76% 29.95 in 10.0 mi SSW 8.1 mph - N/A   Clear
6:33 PM 27.1 °F 18.9 °F 19.6 °F 73% 29.94 in 10.0 mi SSW 8.1 mph - N/A   Clear
6:54 PM 27.1 °F 18.2 °F 18.7 °F 70% 29.92 in 10.0 mi South 9.2 mph - N/A   Clear
7:14 PM 26.4 °F 14.5 °F 18.1 °F 71% 29.92 in 10.0 mi SSW 15.0 mph - N/A   Clear
7:34 PM 25.5 °F 14.9 °F 18.7 °F 75% 29.92 in 10.0 mi South 11.5 mph - N/A   Clear
7:54 PM 24.8 °F 14.6 °F 18.1 °F 76% 29.91 in 10.0 mi South 10.4 mph - N/A   Clear
8:13 PM 23.9 °F 13.5 °F 17.1 °F 75% 29.90 in 10.0 mi South 10.4 mph - N/A   Clear
8:34 PM 23.9 °F 12.9 °F 16.3 °F 73% 29.89 in 10.0 mi South 11.5 mph - N/A   Clear
8:54 PM 23.0 °F 13.9 °F 14.5 °F 70% 29.89 in 10.0 mi SSW 8.1 mph - N/A   Clear
9:13 PM 22.6 °F 11.3 °F 13.6 °F 68% 29.89 in 10.0 mi South 11.5 mph 17.3 mph N/A   Clear
9:34 PM 22.3 °F 10.2 °F 13.8 °F 70% 29.89 in 10.0 mi SSW 12.7 mph 18.4 mph N/A   Clear
9:54 PM 23.0 °F 12.4 °F 14.0 °F 68% 29.88 in 10.0 mi SSW 10.4 mph - N/A   Clear
10:13 PM 23.0 °F 13.1 °F 14.0 °F 68% 29.87 in 10.0 mi SSW 9.2 mph - N/A   Clear
10:34 PM 24.8 °F 14.0 °F 14.0 °F 64% 29.86 in 10.0 mi SW 11.5 mph 16.1 mph N/A   Clear
10:54 PM 26.2 °F 15.8 °F 14.0 °F 60% 29.86 in 10.0 mi SW 11.5 mph 18.4 mph N/A   Clear
11:13 PM 27.7 °F 16.6 °F 15.3 °F 60% 29.86 in 10.0 mi SW 13.8 mph 20.7 mph N/A   Clear
11:34 PM 29.1 °F 19.4 °F 16.0 °F 58% 29.85 in 10.0 mi SW 11.5 mph 23.0 mph N/A   Clear
11:54 PM 29.1 °F 18.9 °F 16.3 °F 59% 29.84 in 10.0 mi SW 12.7 mph 18.4 mph N/A   Clear